• Join FlightAware (Why Join?)
  • Login
  • US Flag 
12:24PM EST


 

Airport Tracker/Info


-or-


 

Live Flight TrackerFlight Track Log ✈ N520GS ✈ 11-Aug-2013 ✈ KJES - KDNL

Flight Track Log - Related Links

Times and Time Zones

All times are in EDT time to prevent confusion due to time zone crossing. See the N520GS flight status page for this flight to view local times or setup timezone preferences in your user account.

Time Position Orientation Groundspeed Altitude Reporting Facility
EDT Latitude Longitude Course Direction KTS MPH feet Rate Location/Type
09:28PM 31.7931 -81.8856 358° North 146 168 5,100  Level Jacksonville Center
09:29PM 31.8389 -81.8875 358° North 152 175 5,200 50 Climbing Jacksonville Center
09:30PM 31.8850 -81.8919 355° North 164 189 5,200  Level Jacksonville Center
09:31PM 31.9247 -81.8989 352° North 159 183 5,200  Level Jacksonville Center
09:32PM 31.9686 -81.9008 358° North 159 183 5,200  Level Jacksonville Center
09:33PM 32.0186 -81.9050 356° North 159 183 5,200  Level Jacksonville Center
09:34PM 32.0625 -81.9094 355° North 159 183 5,200 -50 Level Jacksonville Center
09:35PM 32.1086 -81.9139 355° North 159 183 5,100  Descending Jacksonville Center
09:36PM 32.1897 -81.9258 353° North 174 200 5,200 36 Climbing Atlanta Center
09:37PM 32.2358 -81.9297 356° North 169 194 5,200 -50 Level Atlanta Center
09:38PM 32.2836 -81.9308 359° North 169 194 5,100  Descending Atlanta Center
09:39PM 32.3297 -81.9347 356° North 163 188 5,200  Climbing Atlanta Center
09:40PM 32.3736 -81.9386 356° North 163 188 5,100  Descending Atlanta Center
09:41PM 32.4217 -81.9425 356° North 163 188 5,200 50 Climbing Atlanta Center
09:42PM 32.4678 -81.9461 356° North 163 188 5,200 -50 Level Atlanta Center
09:43PM 32.5136 -81.9500 356° North 163 188 5,100 -50 Descending Atlanta Center
09:44PM 32.5597 -81.9514 359° North 163 188 5,100  Level Atlanta Center
09:45PM 32.6036 -81.9578 353° North 158 182 5,100  Level Atlanta Center
09:46PM 32.6497 -81.9642 353° North 158 182 5,100 -50 Level Atlanta Center
09:47PM 32.6956 -81.9681 356° North 163 188 5,000 -50 Descending Atlanta Center
09:48PM 32.7417 -81.9717 356° North 163 188 5,000 50 Level Atlanta Center
09:49PM 32.7856 -81.9758 355° North 163 188 5,100  Climbing Atlanta Center
09:50PM 32.8314 -81.9819 354° North 163 188 5,000 -50 Descending Atlanta Center
09:51PM 32.8794 -81.9833 359° North 163 188 5,000 50 Level Atlanta Center
09:52PM 32.9233 -81.9872 356° North 163 188 5,100  Climbing Atlanta Center
09:53PM 32.9672 -81.9936 353° North 163 188 5,000 -250 Descending Atlanta Center
09:54PM 33.0133 -81.9975 356° North 163 188 4,600 -400 Descending Atlanta Center
09:55PM 33.0550 -81.9992 358° North 163 188 4,200 -350 Descending Atlanta Center
09:56PM 33.1011 -82.0056 353° North 163 188 3,900 -350 Descending Atlanta Center
09:57PM 33.1472 -82.0094 356° North 163 188 3,500 -350 Descending Atlanta Center
09:58PM 33.1931 -82.0158 353° North 163 188 3,200 -300 Descending Atlanta Center